Weather History for KPDK - August, 2013

Change the Weather History Date:

Friday, August 2, 2013

  Actual Average Record
Temperature  
Mean Temperature 79 °F 80 °F  
Max Temperature 90 °F 89 °F 97 °F (2011)
Min Temperature 67 °F 71 °F 66 °F (2014)
Cooling Degree Days 14 15  
Month to date cooling degree days 29 30  
Year to date cooling degree days 929 1053  
Since 1 June cooling degree days 764 842  
Growing Degree Days 28 (Base 50)    
Moisture  
Dew Point 65 °F    
Average Humidity 66    
Maximum Humidity 93    
Minimum Humidity 38    
Precipitation  
Precipitation 0.00 in 0.17 in 1.02 in (2004)
Month to date precipitation T 0.33  
Year to date precipitation 28.81 32.60  
Sea Level Pressure  
Sea Level Pressure 29.97 in    
Wind  
Wind Speed 2 mph (WNW)    
Max Wind Speed 10 mph    
Max Gust Speed 26 mph    
Visibility 8 miles    
Events      
T = Trace of Precipitation, MM = Missing Value Source: NWS Daily Summary

Daily Weather History Graph

Daily Weather History Graph

Search for Another Location

Airport or City:

Trip Planner

Search our weather history database for the weather conditions in past years. The results will help you decide how hot, cold, wet, or windy it might be!

Date:

Astronomy

Aug. 02, 2013 Rise Set
Actual Time 6:49 AM EDT 8:36 PM EDT
Civil Twilight 6:22 AM EDT 9:03 PM EDT
Nautical Twilight 5:49 AM EDT 9:36 PM EDT
Astronomical Twilight 5:14 AM EDT 10:11 PM EDT
Moon 3:11 AM EDT (8/2) 5:31 PM EDT (8/2)
Length of Visible Light 14h 41m
Length of Day
13h 46m
Waning Crescent, 16% of the Moon is Illuminated
Aug 2
Waning Crescent
Aug 6
New
Aug 14
First Quarter
Aug 20
Full
Aug 28
Last Quarter

Hourly Weather History & Observations

Time (EDT) Temp. Heat Index Dew Point Humidity Pressure Visibility Wind Dir Wind Speed Gust Speed Precip Events Conditions
12:53 AM 72.0 °F - 68.0 °F 87% 29.94 in 9.0 mi Calm Calm - N/A   Clear
1:53 AM 71.1 °F - 68.0 °F 90% 29.94 in 8.0 mi Calm Calm - N/A   Clear
2:53 AM 71.1 °F - 66.9 °F 87% 29.92 in 8.0 mi Calm Calm - N/A   Clear
3:53 AM 69.1 °F - 66.0 °F 90% 29.91 in 7.0 mi NNW 3.5 mph - N/A   Clear
4:53 AM 68.0 °F - 66.0 °F 93% 29.92 in 7.0 mi Calm Calm - N/A   Clear
5:53 AM 66.9 °F - 64.9 °F 93% 29.94 in 7.0 mi Calm Calm - N/A   Clear
6:53 AM 66.9 °F - 64.9 °F 93% 29.95 in 6.0 mi Calm Calm - N/A   Clear
7:53 AM 70.0 °F - 66.9 °F 90% 29.98 in 5.0 mi Calm Calm - N/A   Clear
8:53 AM 73.0 °F - 68.0 °F 84% 29.99 in 7.0 mi NNW 3.5 mph - N/A   Clear
9:53 AM 75.9 °F - 66.9 °F 74% 29.99 in 8.0 mi Calm Calm - N/A   Clear
10:53 AM 81.0 °F 83.8 °F 68.0 °F 65% 30.00 in 8.0 mi WSW 3.5 mph - N/A   Clear
11:53 AM 82.9 °F 85.0 °F 66.0 °F 56% 30.00 in 10.0 mi Calm Calm - N/A   Clear
12:53 PM 87.1 °F 89.2 °F 66.0 °F 49% 29.99 in 9.0 mi Calm Calm - N/A   Clear
1:53 PM 86.0 °F 87.3 °F 64.0 °F 48% 29.99 in 9.0 mi SW 3.5 mph - N/A   Scattered Clouds
2:53 PM 90.0 °F 90.0 °F 61.0 °F 38% 29.98 in 9.0 mi Calm Calm - N/A   Clear
3:53 PM 89.1 °F 90.0 °F 63.0 °F 42% 29.98 in 9.0 mi West 6.9 mph - N/A   Clear
4:53 PM 88.0 °F 88.4 °F 62.1 °F 42% 29.97 in 9.0 mi West 5.8 mph - N/A   Clear
5:53 PM 87.1 °F 87.8 °F 63.0 °F 44% 29.96 in 9.0 mi West 8.1 mph - N/A   Clear
6:53 PM 87.1 °F 87.8 °F 63.0 °F 44% 29.96 in 9.0 mi NNW 5.8 mph - N/A   Clear
7:53 PM 84.0 °F 84.4 °F 61.0 °F 46% 29.97 in 10.0 mi NW 6.9 mph - N/A   Clear
8:53 PM 80.1 °F 81.9 °F 64.9 °F 60% 29.99 in 9.0 mi NW 3.5 mph - N/A   Clear
9:53 PM 75.9 °F - 66.0 °F 71% 30.01 in 10.0 mi Calm Calm - N/A   Clear
10:53 PM 73.0 °F - 66.9 °F 81% 30.01 in 8.0 mi Calm Calm - N/A   Clear
11:53 PM 71.1 °F - 68.0 °F 90% 30.01 in 8.0 mi Calm Calm - N/A   Clear